Regional Weather Roundup
Issued by NWS

Home | Current Version | Previous Version | Graphics & Text | Print | Product List | Glossary On
Versions: 1 2 3 4 5 6 7 8 9 10 11 12 13 14 15 16 17 18 19 20 21 22 23 24 25 26 27 28 29 30 31 32 33 34 35 36 37 38 39 40 41 42 43 44 45 46 47 48 49 50
000
ASUS43 KLMK 021302
RWRKY
KENTUCKY REGIONAL WEATHER ROUNDUP
NATIONAL WEATHER SERVICE LOUISVILLE KY
900 AM EDT WED SEP 02 2015

NOTE "FAIR" INDICATES FEW OR NO CLOUDS BELOW 12,000 FEET
WITH NO SIGNIFICANT WEATHER AND/OR OBSTRUCTIONS TO VISIBILITY.

KYZ001>023-026-027-061>063-070>075-021400-
WESTERN AND SOUTH CENTRAL KENTUCKY

CITY           SKY/WX    TMP DP  RH WIND       PRES   REMARKS
PADUCAH        MOSUNNY   74  69  85 CALM      30.13R
HENDERSON      SUNNY     72  66  83 CALM      30.13R
OWENSBORO      SUNNY     74  70  87 S3        30.15R
HOPKINSVILLE   CLOUDY    71  68  90 NE2       30.14R
BOWLING GREEN  SUNNY     73  69  87 CALM      30.15S
GLASGOW        NOT AVBL
$$

KYZ024-025-028>034-038-045-046-053-021400-
NORTH CENTRAL KENTUCKY

CITY           SKY/WX    TMP DP  RH WIND       PRES   REMARKS
LOUISVILLE/SDF SUNNY     75  68  78 S3        30.14R HAZE
LOUISVILLE/LOU SUNNY     74  69  85 CALM      30.15R
FORT KNOX      SUNNY     71  67  87 CALM      30.14R
$$

KYZ035>037-039>044-047>052-055>060-089>105-021400-
NORTHEAST KENTUCKY

CITY           SKY/WX    TMP DP  RH WIND       PRES   REMARKS
LEXINGTON      SUNNY     73  67  81 CALM      30.17R
COVINGTON      SUNNY     73  69  87 CALM      30.15R
FRANKFORT      SUNNY     73  67  81 CALM      30.15R
$$

KYZ054-064>069-076>088-106>120-021400-
SOUTHEAST KENTUCKY

CITY           SKY/WX    TMP DP  RH WIND       PRES   REMARKS
JACKSON        SUNNY     72  68  87 CALM      30.18S
LONDON         SUNNY     71  65  81 CALM      30.18R
SOMERSET       NOT AVBL
MIDDLESBORO    CLOUDY    66  66 100 CALM      30.20R FOG
MONTICELLO     SUNNY     71  71 100 CALM      30.20R FOG
$$



USA.gov is the U.S. government's official web portal to all federal, state and local government web resources and services.